Probability
14 15 13 10 10 12 14 14 13 13 13 12 10 8 7 6 7 8 7 7 7 9 10 9 7 7 7 8 9 10 10 10 9 6 4 6 10 11 11 11 11 11 10
13 14 13 12 11 12 13 12 11 10 10 9 8 7 6 6 6 7 8 7 7 8 9 8 7 7 8 9 9 10 10 10 10 8 6 8 11 12 12 12 11 11 10
10 12 14 14 13 13 12 11 10 9 8 6 6 5 5 4 5 7 9 9 8 8 9 7 6 7 8 9 9 9 10 10 11 10 8 9 12 13 13 12 12 12 9
7 10 16 17 15 13 11 10 8 7 7 5 5 4 4 3 4 6 8 9 9 9 7 6 6 6 7 7 7 7 8 9 10 9 8 8 10 11 11 11 12 11 9
6 10 14 17 16 13 9 6 5 5 5 4 4 4 3 3 3 5 6 6 7 7 6 5 5 4 4 4 4 4 5 7 8 6 5 6 7 8 8 8 9 8 8
5 6 9 11 12 10 7 4 3 4 4 3 2 2 2 1 1 3 3 4 4 4 5 5 4 3 2 2 1 1 2 4 5 4 3 4 6 6 6 6 6 6 6
2 2 3 5 7 6 4 3 3 4 4 2 1 1 1 0 0 1 1 2 2 3 3 3 3 2 1 1 0 0 1 2 2 2 2 2 5 6 6 6 6 5 6
0 0 0 1 2 3 2 2 3 4 4 2 1 1 1 1 0 0 0 1 1 1 1 2 3 2 0 0 0 0 1 1 1 0 0 1 3 5 6 6 6 4 4
0 0 0 0 0 1 2 3 3 3 3 3 3 2 3 2 1 0 0 0 0 1 2 3 2 1 0 0 0 1 2 2 1 0 0 0 1 1 3 4 4 2 1
0 0 0 0 0 1 3 3 3 3 3 3 3 4 4 4 2 0 0 0 1 2 3 2 1 0 0 0 0 1 3 3 1 0 0 0 0 0 1 2 3 2 1
0 0 0 0 0 2 3 3 3 3 3 3 4 5 5 5 4 1 0 0 1 1 1 1 0 0 0 0 0 1 2 2 1 1 1 1 0 0 0 1 3 3 2
0 0 0 0 0 1 3 3 3 3 3 3 4 4 5 5 4 1 0 0 0 1 0 0 0 0 0 0 0 1 1 1 1 1 1 2 1 0 0 0 2 2 2
0 0 0 0 0 1 2 2 2 2 2 1 1 2 2 4 4 3 1 1 0 0 0 0 0 0 0 0 0 0 0 0 0 0 1 2 2 1 0 0 0 1 1
0 0 0 0 0 0 1 1 1 1 1 0 0 0 2 3 4 4 3 2 1 1 1 1 1 1 0 0 0 0 0 0 0 0 0 1 2 1 0 0 0 0 0
0 0 0 0 0 0 0 0 0 0 0 0 0 1 2 3 3 2 2 2 2 2 2 2 2 2 1 0 0 0 0 0 0 0 0 1 2 2 1 0 0 0 0
0 0 0 0 0 0 0 0 0 0 0 0 0 0 1 1 1 0 0 1 1 1 1 2 3 3 2 1 1 0 0 0 0 0 0 0 1 1 1 0 0 0 0
0 0 0 0 0 0 0 0 0 0 0 0 0 0 0 0 0 0 0 0 0 0 0 1 3 3 3 3 2 1 0 0 0 0 0 0 0 0 0 0 0 0 0
0 0 0 0 0 0 0 0 0 0 0 0 0 0 0 0 0 0 0 0 0 0 0 1 2 3 3 3 2 1 0 0 0 0 0 0 0 0 0 0 0 0 0
0 0 0 0 0 0 0 0 0 0 0 0 0 0 0 0 0 0 0 0 0 0 0 0 1 2 3 3 2 1 0 0 0 0 0 0 0 0 0 0 0 0 0
0 0 0 0 0 0 0 0 0 0 0 0 0 0 0 0 0 0 0 0 0 0 0 0 1 2 2 1 1 0 0 0 0 0 0 0 0 0 0 0 0 0 0
0 0 0 0 0 0 0 0 0 0 0 0 0 0 0 0 0 0 0 0 0 0 0 1 1 1 1 0 0 0 0 0 0 0 0 0 0 0 0 0 0 0 0
0 0 0 0 0 0 0 0 0 0 0 0 0 0 0 0 0 0 0 0 0 0 0 1 1 0 0 0 0 0 0 0 0 0 0 0 0 0 0 0 0 0 0
0 0 0 0 0 0 0 0 0 0 0 0 0 0 0 0 0 0 0 0 0 0 0 1 1 0 0 0 0 0 0 0 0 0 0 0 0 0 0 0 0 0 0
0 0 0 0 0 0 0 0 0 0 0 0 0 0 0 0 0 0 0 0 0 0 0 0 0 0 0 0 0 0 0 0 0 0 0 0 0 0 0 0 0 0 0
0 0 0 0 0 0 0 0 0 0 0 0 0 0 0 0 0 0 0 0 0 0 0 0 0 0 0 0 0 0 0 0 0 0 0 0 0 0 0 0 0 0 0
0 0 0 0 0 0 0 0 0 0 0 0 0 0 0 0 0 0 0 0 0 0 0 0 0 0 0 0 0 0 0 0 0 0 0 0 0 0 0 0 0 0 0
Wind_Speed
1 1 1 1 2 2 2 2 2 2 3 3 3 4 4 4 3 3 5 4 5 4 5 5 5 5 4 4 4 5 5 6 8 7 6 5 6 7 6 7 8 8 7
1 1 1 1 1 2 2 2 2 3 3 3 4 4 4 4 3 4 4 4 4 5 5 5 5 4 5 5 4 5 5 6 7 9 7 7 7 7 7 8 7 7 7
1 1 1 1 1 1 1 2 2 2 3 3 3 4 3 3 3 4 4 5 4 4 5 5 5 5 6 5 5 6 6 6 6 8 8 6 7 6 7 7 8 6 8
1 0 1 1 1 1 1 1 1 2 2 3 3 3 3 3 3 4 4 4 4 5 5 5 6 6 6 6 6 6 7 7 6 7 7 6 6 6 6 6 6 5 6
1 0 1 1 1 1 1 1 1 1 1 1 2 2 2 2 3 4 5 5 4 5 5 5 5 4 5 6 7 7 7 7 6 6 7 6 5 5 5 5 6 6 6
1 0 1 0 0 1 1 1 1 1 1 1 1 1 2 2 3 4 6 5 5 5 5 5 5 5 5 7 9 9 8 8 8 7 7 7 7 7 6 6 6 6 6
1 1 0 0 0 0 1 1 1 1 0 0 1 2 2 2 2 3 5 6 5 5 5 5 5 4 5 6 7 8 9 9 9 9 9 9 9 7 7 8 6 7 7
1 1 1 0 0 0 1 0 0 1 1 1 2 2 2 2 2 3 5 5 5 5 5 5 5 5 4 6 8 7 7 6 7 7 8 9 8 7 7 8 7 8 8
1 1 1 2 1 0 0 0 1 1 1 1 1 2 2 2 2 3 5 4 3 4 4 4 4 4 3 5 7 7 7 6 5 6 7 8 8 8 7 6 6 6 6
2 2 1 2 1 1 1 1 1 1 2 2 1 1 2 2 2 3 5 4 4 4 3 2 0 3 4 4 6 6 7 7 7 6 6 6 7 6 8 7 6 6 6
2 2 2 2 2 1 1 1 1 2 2 2 2 2 1 2 1 2 3 4 5 5 4 4 2 1 3 4 6 6 7 8 8 7 6 5 4 4 4 4 5 6 6
1 2 2 2 2 1 1 2 2 2 2 2 2 2 1 1 1 1 1 3 6 5 5 5 3 2 3 5 5 5 8 8 6 5 5 4 4 4 3 4 5 5 6
1 1 1 2 2 2 2 2 2 3 3 3 2 2 2 1 1 2 3 3 4 4 4 4 5 5 5 5 4 6 6 5 4 5 5 4 4 4 4 4 4 4 5
1 1 1 1 2 2 2 2 2 3 3 3 3 3 2 2 2 2 2 2 3 3 4 3 5 5 5 4 4 3 3 3 4 5 5 5 4 4 3 3 3 3 3
2 2 2 2 1 2 2 2 3 2 3 4 4 4 4 3 4 6 6 5 5 5 6 4 4 3 4 3 3 3 3 3 3 3 4 5 4 4 3 2 2 3 3
2 2 2 2 1 2 1 1 1 1 0 1 3 4 3 2 4 4 5 6 6 7 6 4 4 4 5 4 4 4 3 3 4 4 4 4 4 4 4 3 2 2 3
3 3 3 3 2 2 2 2 1 1 3 3 3 3 4 5 5 5 6 6 5 4 4 4 4 4 5 5 4 4 4 4 4 4 4 4 4 4 4 4 3 3 3
4 3 4 3 3 3 3 3 3 3 2 1 3 5 5 5 5 5 5 4 2 2 3 4 4 4 5 5 5 5 5 4 4 4 4 4 4 4 4 4 3 4 4
4 3 3 3 3 3 3 3 3 3 3 3 2 2 4 5 6 4 3 2 4 4 4 4 4 4 4 4 4 4 5 5 5 4 4 5 5 4 4 4 4 4 4
3 3 4 4 3 3 3 3 3 3 3 3 3 3 2 2 2 1 1 2 3 4 4 4 4 4 4 4 4 4 4 4 4 4 4 4 4 4 4 5 5 5 4
3 2 5 5 4 3 3 3 3 3 3 3 2 2 3 4 3 3 3 3 3 3 4 4 4 4 4 4 4 5 5 5 5 5 4 4 4 4 4 4 5 4 5
4 3 3 4 4 3 4 3 3 3 3 3 3 1 2 3 2 3 3 3 3 3 3 3 3 3 4 4 4 4 4 4 5 5 5 5 4 4 4 4 4 4 4
4 4 4 3 3 3 4 4 3 3 3 3 3 2 2 2 2 3 3 3 2 2 3 3 3 3 3 3 3 3 4 4 5 5 5 5 5 4 4 4 5 4 4
4 4 4 4 4 3 3 3 3 3 3 2 2 3 3 2 2 2 3 2 2 2 2 2 3 3 4 3 3 3 4 5 6 5 5 5 5 5 4 4 4 5 4
4 4 4 4 4 3 3 3 3 3 3 2 2 2 3 3 2 2 2 2 2 2 3 2 2 3 3 4 4 4 4 4 5 6 6 4 5 5 5 5 4 4 4
4 3 3 3 3 3 3 3 3 3 3 3 2 2 3 3 2 2 2 2 2 2 2 2 2 3 3 3 4 4 3 4 5 6 7 5 4 4 5 4 5 4 4
Wind_Direction
203 196 213 216 211 219 215 209 208 222 235 243 249 253 255 254 260 261 264 259 254 254 254 251 256 267 271 271 267 267 267 267 272 280 281 278 274 272 272 266 262 256 239
199 167 189 201 198 204 202 208 215 228 239 242 244 246 250 257 262 259 260 259 259 258 259 262 264 264 263 270 276 274 273 272 272 279 279 274 270 269 269 270 266 259 261
254 174 171 203 207 211 210 213 221 232 242 248 243 242 252 263 263 261 263 263 264 265 265 266 271 273 274 277 278 279 278 272 268 271 271 273 271 271 275 269 266 263 265
306 166 142 191 212 215 204 197 219 231 237 236 232 240 254 265 273 274 270 270 272 272 270 269 272 277 279 278 274 274 277 277 271 269 270 270 269 267 270 271 270 260 263
309 192 149 186 203 194 198 183 186 208 212 220 231 250 269 271 297 302 289 280 280 278 278 277 276 281 288 284 289 290 285 281 280 276 273 273 274 280 277 275 274 275 268
325 49 108 138 187 122 138 154 146 154 182 200 252 271 287 320 15 338 303 293 289 286 286 285 276 256 260 251 261 271 278 279 286 285 282 283 281 279 282 278 279 277 275
7 60 94 125 33 104 152 117 130 151 190 291 296 294 301 11 10 319 302 289 284 285 284 284 284 293 282 281 264 251 254 252 259 273 282 285 287 288 287 280 276 280 284
46 62 49 343 347 178 184 143 140 227 285 317 313 315 325 18 8 319 303 273 279 284 284 285 286 289 303 300 288 283 282 273 257 255 273 281 284 289 280 276 277 275 272
9 13 4 333 331 242 226 231 266 277 301 310 333 347 338 11 23 329 307 289 283 284 284 292 296 299 344 311 287 288 289 288 263 249 263 272 280 275 271 271 267 268 277
344 334 346 339 332 328 337 275 255 272 289 299 330 341 335 339 22 348 313 300 305 300 295 283 1 309 319 301 288 292 294 299 300 286 264 258 262 257 238 251 266 269 280
338 335 333 333 318 297 292 279 282 280 297 302 312 306 316 328 10 17 325 309 316 317 322 323 355 22 289 283 280 291 297 296 291 288 281 277 274 273 266 259 266 270 273
342 336 331 318 308 300 271 273 280 283 266 266 277 291 289 261 339 44 289 290 306 316 321 326 349 358 281 270 270 283 286 284 284 289 290 293 296 299 299 295 284 278 274
332 323 316 311 300 291 270 261 259 266 282 290 293 301 313 328 135 188 222 256 279 296 320 330 319 298 275 259 241 255 268 279 295 299 302 305 309 310 301 291 286 279 276
286 280 271 280 279 274 279 279 287 300 303 307 313 316 319 324 336 330 298 269 245 262 288 274 244 253 260 280 280 265 279 307 310 309 312 311 308 302 295 300 300 293 285
286 286 284 282 293 278 276 300 299 324 326 311 314 312 319 328 356 351 331 329 331 338 321 302 310 320 320 321 318 320 315 309 302 307 310 308 305 305 305 300 292 291 287
281 284 285 284 278 275 273 242 14 301 295 256 288 301 325 331 306 306 305 302 301 305 302 308 324 327 325 327 326 324 324 325 321 318 314 311 316 319 315 308 303 305 300
287 285 287 288 282 284 289 288 273 214 213 219 218 238 260 280 281 286 285 286 276 269 281 310 320 320 321 324 325 325 326 330 325 320 321 320 320 320 323 324 324 319 305
278 264 267 273 284 286 285 290 296 297 289 254 200 201 225 243 256 270 272 280 286 263 300 317 323 324 326 328 327 325 323 324 323 322 324 323 323 320 320 324 324 320 311
276 275 272 282 280 280 285 289 300 308 308 308 305 183 211 224 218 234 246 304 319 323 322 323 324 324 327 328 326 324 320 320 324 324 324 322 320 320 323 325 323 319 300
255 267 272 272 271 272 275 284 298 311 315 317 322 338 329 305 317 327 286 306 314 324 328 326 326 330 332 329 326 326 324 324 321 314 318 321 322 322 326 325 322 321 316
271 248 244 261 268 281 289 294 302 309 314 309 317 357 318 314 326 327 325 323 324 329 329 325 327 333 332 329 331 332 330 331 332 329 328 328 326 325 322 323 329 330 327
283 276 270 276 280 285 290 290 292 294 302 307 303 224 204 277 314 318 322 330 330 331 333 325 326 334 334 333 336 329 330 332 333 330 327 326 326 325 325 325 331 330 326
279 280 280 279 278 269 270 281 286 288 295 306 315 323 317 311 315 321 319 324 333 339 341 337 330 334 342 339 335 334 334 333 326 324 321 321 322 319 317 317 317 318 325
275 279 284 282 278 277 277 279 282 288 294 298 306 313 310 302 297 306 311 323 331 329 332 329 330 339 344 341 336 351 355 336 320 315 316 314 315 318 318 318 320 324 319
280 285 286 283 280 280 280 279 282 285 286 284 283 296 301 295 291 295 306 315 319 328 333 331 338 339 341 351 356 359 355 331 320 316 308 306 312 315 318 323 322 322 321
282 281 280 284 285 284 282 279 282 283 279 276 281 292 303 306 305 304 308 319 322 327 331 338 343 338 338 347 353 343 331 323 319 311 300 302 313 322 322 319 322 319 322